GFSFLT1_250_rhum_162.txt.gz
RH
68 48 37 41 47 30 29 35 48 59 54 55 58 52 63 87 81 89 77 81 80 79 75 75 56 49 54 64 63 43 32 31
69 58 65 66 51 49 51 57 72 67 65 66 64 81 99 100 100 91 100 100 94 76 82 74 70 67 74 71 57 41 34 32
95 96 77 52 51 49 53 60 55 53 60 57 73 85 100 100 100 100 97 85 95 98 82 80 67 65 58 48 41 34 28 26
56 54 40 31 35 47 66 70 59 59 69 100 100 100 89 96 96 84 94 95 93 88 80 68 65 58 45 36 30 34 30 26
40 46 54 61 77 94 100 91 79 85 90 85 88 92 86 86 86 88 93 87 70 63 61 48 45 39 33 31 31 32 34 34
50 58 62 74 81 95 86 80 89 82 78 86 93 92 100 100 99 74 59 55 71 58 47 46 37 35 31 32 39 41 51 47
69 62 73 100 95 79 68 86 80 73 84 99 85 96 99 84 79 75 78 68 50 46 43 41 38 42 39 46 53 51 54 55
73 73 80 91 90 77 87 72 88 82 86 71 72 77 78 89 84 69 59 52 40 38 40 48 48 48 48 55 57 56 60 66
72 92 100 100 100 95 88 95 80 85 79 78 81 86 83 70 55 49 40 36 37 44 48 51 47 52 52 54 58 61 63 69
94 100 100 100 94 99 98 90 97 97 98 90 77 78 62 49 43 36 32 33 43 49 50 54 52 55 58 60 65 64 67 70
100 100 100 92 76 84 79 97 97 96 90 80 66 55 48 39 34 27 33 36 35 39 46 53 53 58 59 62 66 63 64 69
100 100 100 88 72 76 79 81 86 80 72 62 54 49 46 44 32 34 36 29 24 23 25 36 48 57 60 62 62 59 58 77
100 100 86 71 81 74 66 65 72 70 62 60 64 56 52 44 40 34 26 16 12 12 13 16 37 52 60 62 58 53 51 82
97 75 71 70 77 66 59 66 69 69 66 69 73 61 51 45 38 29 18 16 15 16 16 18 33 54 59 60 61 58 78 93
79 83 75 72 61 58 64 66 68 69 69 79 71 59 56 47 38 24 22 22 20 22 25 30 40 48 54 57 66 80 85 90
84 80 73 52 53 59 57 64 69 70 75 71 67 58 55 49 32 30 37 35 37 44 50 55 60 71 81 82 88 89 96 100
80 80 54 49 52 48 60 66 75 71 70 67 62 62 58 39 37 38 51 50 50 56 68 76 83 94 98 96 93 90 86 85
48 43 48 48 47 61 74 76 78 72 65 64 58 59 46 38 43 52 66 60 64 68 77 80 86 90 87 82 80 80 79 78
34 50 50 51 63 74 77 79 71 69 62 58 62 54 39 42 46 56 68 76 86 89 81 80 81 78 79 81 79 75 69 65

GFSFLT1_250_rhum_165.txt.gz
RH
100 98 98 90 83 78 70 60 51 42 39 44 39 44 50 63 68 72 64 67 65 78 97 100 100 100 100 100 99 74 67 73
100 94 100 97 92 77 70 57 41 46 48 41 53 87 90 72 61 69 72 65 76 92 100 100 81 84 83 92 78 68 65 62
96 91 88 90 75 54 44 43 48 40 38 43 51 60 67 70 66 60 74 68 70 87 73 79 83 80 80 77 76 75 50 47
63 63 72 68 52 44 41 37 35 42 36 39 45 53 55 58 60 57 74 75 71 78 81 87 84 89 77 65 58 54 39 32
68 62 57 48 39 35 36 37 41 41 40 51 60 56 68 70 66 77 80 81 74 72 68 72 74 65 52 49 44 41 35 28
51 46 48 56 42 48 45 38 39 58 54 62 79 94 95 83 70 76 80 94 93 73 64 52 42 32 31 40 35 33 32 33
70 62 69 53 51 54 58 77 85 72 72 79 94 98 88 73 71 72 74 82 80 65 49 38 34 33 32 34 35 38 46 46
59 42 57 67 64 78 99 99 100 90 74 79 100 81 74 73 64 65 68 70 59 40 28 28 30 31 33 48 50 47 47 50
65 64 86 70 100 100 100 88 83 90 100 100 87 86 76 81 72 66 65 54 38 26 25 26 30 38 47 51 52 50 49 55
73 100 100 83 100 90 72 75 100 100 92 89 77 82 76 77 56 62 61 40 29 24 26 24 26 30 37 45 49 50 52 57
94 74 76 92 83 92 97 99 87 100 93 80 94 79 70 56 62 56 42 31 31 29 25 24 20 18 21 31 42 50 56 58
75 53 66 80 100 100 100 100 99 93 82 82 76 61 51 54 55 43 45 44 39 34 27 16 13 12 13 19 37 52 62 62
94 100 100 100 100 91 100 98 89 80 83 80 54 43 47 52 55 57 56 48 41 35 20 16 15 14 16 17 29 52 66 68
100 100 100 100 100 100 95 89 77 87 85 61 44 44 57 60 68 60 51 49 45 30 24 22 19 18 19 22 31 54 72 74
99 100 100 94 94 96 82 80 78 73 65 48 51 52 57 67 61 56 50 51 42 33 36 34 29 32 35 41 56 66 74 75
99 98 88 88 93 89 86 80 63 51 48 53 54 56 64 60 58 56 54 52 40 40 43 47 55 61 68 73 74 78 82 82
88 87 87 89 79 89 77 58 44 47 58 55 61 67 62 58 59 56 58 45 46 51 52 61 74 75 80 85 90 92 90 90
76 86 81 82 97 78 44 42 52 62 58 61 72 66 61 62 62 64 49 50 53 62 70 76 84 87 85 88 92 87 84 82
72 67 84 97 61 44 43 53 60 63 65 72 70 65 62 60 66 58 46 59 62 70 77 78 89 86 84 86 92 95 90 80

GFSFLT1_250_rhum_171.txt.gz
RH
100 79 74 72 99 100 100 57 47 48 61 61 63 63 63 74 80 67 55 46 42 40 36 37 34 33 35 33 25 23 20 20
100 100 100 100 100 100 88 81 72 85 85 88 81 77 75 63 66 58 55 42 43 43 46 42 34 47 41 32 26 26 32 28
100 100 100 96 100 100 100 100 100 98 79 80 73 73 68 69 62 53 53 38 39 41 49 47 40 38 26 24 23 28 34 35
100 100 100 100 100 100 100 100 100 100 88 88 98 99 88 53 39 37 54 82 67 71 54 36 28 26 25 28 35 47 37 34
100 100 100 100 100 100 100 92 88 90 98 100 100 100 100 88 88 82 78 72 68 53 35 31 36 34 40 40 43 37 30 21
100 100 100 100 100 100 100 100 100 100 100 99 90 94 99 91 94 90 79 54 53 37 31 41 41 57 48 47 35 31 21 18
70 95 100 100 100 98 95 100 100 100 100 100 98 98 91 74 74 73 50 42 42 34 47 55 52 59 50 36 34 20 16 15
90 58 88 87 76 100 100 95 78 80 88 70 68 75 76 75 73 50 36 40 38 46 59 62 68 58 44 35 21 17 17 16
43 95 84 88 78 67 87 76 54 90 76 63 85 96 88 59 45 41 42 51 60 63 63 68 71 58 37 25 21 22 20 17
100 100 96 87 57 98 97 81 91 94 94 98 81 81 56 41 41 46 63 72 68 67 72 74 64 48 25 25 28 23 21 16
94 78 82 65 62 70 100 100 100 100 77 78 83 58 51 66 66 72 75 65 74 79 72 65 43 27 28 35 31 28 20 14
90 74 77 96 96 80 73 72 98 96 86 79 61 62 80 79 77 74 71 76 80 75 69 43 27 30 40 38 36 28 19 16
66 72 100 95 98 100 78 82 78 79 64 68 83 85 86 83 75 75 75 76 70 66 32 30 34 44 44 43 42 32 28 25
100 100 83 92 88 81 86 92 81 77 82 99 96 91 74 76 68 72 80 71 64 31 35 35 45 46 45 53 47 49 47 42
100 100 98 79 85 94 83 97 95 87 91 98 87 78 74 71 81 79 74 57 33 37 40 43 50 48 53 58 54 63 67 69
100 99 96 95 88 76 94 100 91 83 86 86 74 62 73 90 79 78 45 34 40 45 46 50 52 55 62 56 58 77 75 82
89 99 91 95 58 83 90 85 88 87 94 75 72 77 83 79 83 48 37 44 53 55 52 54 56 64 60 56 69 84 79 81
97 94 95 63 79 90 90 95 94 82 70 71 76 79 87 91 56 41 46 52 63 58 54 59 63 70 57 66 73 82 83 85
80 79 70 86 88 82 82 73 70 67 83 74 70 82 86 59 49 50 53 62 63 58 62 66 70 66 57 65 71 78 90 88

GFSFLT1_250_rhum_174.txt.gz
RH
92 100 100 100 100 100 100 100 100 95 84 92 100 100 100 100 99 94 89 75 62 61 57 55 59 51 38 33 35 31 28 29
87 100 100 100 100 100 87 100 100 100 100 100 100 100 100 100 100 100 100 100 89 76 68 64 62 55 40 39 42 39 42 41
82 97 100 100 100 100 100 98 94 98 100 100 100 100 100 100 100 100 100 100 100 95 85 82 65 77 71 57 47 38 34 29
82 100 99 100 100 100 100 100 100 100 100 100 100 100 100 100 100 100 100 100 100 100 100 93 74 56 45 40 35 34 26 24
100 100 100 99 83 89 94 100 100 100 100 100 100 98 88 79 74 78 78 61 59 65 72 57 47 41 38 30 28 25 32 41
100 100 100 100 100 100 100 100 97 87 72 68 82 82 66 47 47 39 38 37 32 34 38 39 41 31 39 34 44 43 41 46
100 100 100 100 100 100 92 95 86 62 44 33 41 42 49 44 48 50 48 38 37 41 48 52 41 47 44 50 50 45 44 40
97 100 100 100 100 100 100 100 100 99 98 84 78 83 64 55 54 46 45 51 57 67 65 73 62 51 55 50 46 49 38 33
98 100 100 84 61 97 100 100 100 65 81 84 92 80 65 61 76 61 64 65 50 57 64 59 57 66 54 46 50 41 36 21
52 74 97 100 100 100 99 80 96 98 89 52 84 81 61 57 60 54 62 64 62 59 66 69 80 70 50 50 46 39 22 22
100 99 64 50 87 95 64 74 67 84 93 89 76 52 52 63 70 58 64 63 82 70 71 75 62 53 51 46 40 24 26 33
100 100 100 100 84 74 97 100 100 82 60 80 86 80 61 74 77 67 76 90 86 75 74 59 53 58 44 38 28 30 38 39
94 100 100 100 92 94 100 85 82 85 72 99 86 97 74 78 70 88 96 90 83 76 48 56 64 50 36 29 34 41 47 47
62 70 71 73 76 71 79 90 100 100 100 99 86 80 89 71 82 90 87 79 77 52 61 65 57 40 26 37 46 48 54 61
100 100 100 96 100 100 100 100 100 100 100 92 77 82 82 83 96 88 83 72 55 67 65 59 44 30 32 53 51 51 63 71
100 100 100 100 100 100 100 100 98 90 91 89 80 80 73 79 85 91 86 65 68 68 62 39 32 38 42 57 53 57 72 75
100 100 100 100 100 100 100 100 97 98 75 79 74 64 71 85 84 73 71 70 71 65 40 34 40 47 54 56 56 64 74 72
99 100 98 99 90 98 100 97 79 75 66 72 72 85 76 54 71 75 69 69 63 38 40 45 50 60 55 60 62 73 72 74
55 62 63 53 72 84 76 91 85 90 82 68 69 63 66 69 86 77 84 70 41 42 46 50 55 54 55 62 70 76 71 67

GFSFLT1_250_rhum_180.txt.gz
RH
99 97 100 100 98 94 76 67 68 86 76 100 100 100 100 99 100 100 99 100 100 100 84 70 64 69 87 100 100 100 100 100
80 100 100 100 100 87 81 92 100 100 100 100 100 100 100 100 100 100 100 100 89 100 100 100 100 100 100 100 97 86 76 64
82 77 99 100 100 100 94 95 97 100 100 91 81 91 98 100 100 100 100 100 100 100 99 100 100 100 100 96 78 51 59 48
98 100 100 100 100 100 94 96 100 100 100 100 97 96 76 61 51 66 68 78 88 80 82 82 79 73 69 60 52 44 40 35
100 100 100 100 100 100 100 100 100 100 100 100 100 100 100 100 100 99 96 96 97 81 70 80 83 60 55 56 44 36 53 48
100 100 100 100 100 100 100 100 100 100 100 100 100 100 100 100 100 100 100 99 96 93 85 87 77 65 61 56 53 44 44 31
100 100 100 100 100 100 100 100 100 100 100 100 100 100 100 100 100 100 100 100 96 90 79 76 81 72 55 49 38 32 41 50
100 100 100 100 100 100 100 100 100 100 100 100 100 100 100 100 100 100 100 100 94 55 53 74 72 82 72 58 60 61 50 50
100 100 100 100 100 100 100 100 100 100 100 100 88 99 100 100 100 100 80 72 89 100 100 95 73 70 63 50 60 56 49 50
95 100 100 100 100 100 100 100 100 100 100 100 100 95 78 78 62 86 90 74 69 68 66 75 57 55 53 54 70 70 48 39
70 79 97 100 100 100 100 100 100 100 100 100 100 100 100 100 100 94 82 68 77 64 70 86 60 73 74 81 75 56 40 31
43 42 53 62 79 100 100 100 100 100 100 100 100 100 100 99 82 79 67 70 68 98 83 69 75 78 78 70 64 49 34 32
80 57 50 64 56 51 60 74 63 69 68 86 86 72 80 90 89 98 90 73 69 84 76 79 84 89 80 60 54 43 38 44
99 100 81 91 92 84 98 100 87 96 81 95 96 100 100 100 100 100 100 89 74 78 89 92 95 79 66 55 53 45 46 54
99 100 100 97 100 100 100 100 100 100 100 100 100 100 100 100 100 100 100 94 92 91 93 92 81 73 62 58 54 53 59 57
100 100 100 100 100 100 100 100 100 100 100 100 100 98 100 100 99 92 99 91 95 97 90 79 77 80 67 57 52 57 55 38
100 100 100 100 100 100 100 99 100 100 100 100 100 100 100 100 100 100 90 100 95 89 88 82 73 77 65 62 59 62 42 38
100 100 100 100 100 100 93 96 99 97 100 100 100 100 100 100 100 95 84 88 93 95 73 72 78 71 63 71 68 63 40 40
82 91 99 100 99 98 82 55 48 40 52 81 91 100 100 100 75 77 85 95 96 88 71 73 79 65 78 75 73 60 44 47

GFSFLT1_250_rhum_183.txt.gz
RH
66 66 61 63 66 97 89 97 90 98 100 100 90 82 77 84 89 100 99 94 99 100 100 100 100 99 100 100 100 98 82 89
71 82 96 86 65 59 48 60 99 100 100 100 100 100 93 100 100 100 100 97 100 97 91 99 77 57 54 58 100 88 69 62
64 90 98 99 100 100 100 100 100 100 100 100 100 100 93 99 100 100 100 100 89 100 99 86 76 64 52 53 53 48 43 50
68 81 100 100 100 100 100 100 100 100 100 100 100 100 100 100 100 99 83 79 88 93 96 84 92 98 100 97 99 95 86 82
60 72 100 100 100 100 100 100 100 100 100 100 100 100 100 100 100 100 100 100 100 100 100 100 100 100 100 100 100 100 96 84
56 44 60 99 100 100 100 100 100 100 100 100 100 100 100 100 100 95 100 100 100 100 100 91 90 90 94 85 96 82 80 51
50 49 68 86 97 100 100 100 100 100 100 100 100 96 100 100 100 100 98 100 100 100 100 100 92 84 89 81 90 70 50 52
52 56 86 99 100 100 100 100 100 100 100 100 100 100 100 100 100 100 100 100 100 100 100 100 84 56 71 80 80 71 62 53
52 60 48 58 85 89 86 94 100 100 100 100 100 100 96 100 100 100 100 93 88 89 78 91 100 96 78 80 88 66 70 54
68 53 69 66 51 64 77 74 85 83 100 100 100 98 100 100 100 100 100 100 100 100 100 100 99 82 81 76 93 75 78 77
98 91 100 70 63 73 78 76 76 79 80 89 78 97 100 100 100 100 100 100 100 100 100 100 81 62 64 76 68 79 82 74
95 100 100 100 87 100 84 93 86 100 72 96 100 92 100 100 100 100 93 86 66 65 66 62 65 78 66 73 92 84 69 86
99 100 100 75 100 100 100 100 100 100 100 97 100 100 99 65 69 99 100 94 69 96 89 100 100 99 93 77 76 73 75 93
100 100 100 100 100 100 100 100 100 96 93 95 85 100 100 100 99 97 100 100 100 100 100 100 98 78 72 77 82 83 75 72
100 100 100 100 100 100 100 100 100 100 100 100 97 100 100 100 100 100 100 100 100 93 100 100 93 85 80 87 84 69 73 73
100 100 100 100 100 100 100 100 100 100 100 100 100 100 100 100 100 100 100 100 100 100 100 89 88 90 90 87 74 68 77 75
100 100 100 100 100 100 100 100 100 100 100 100 100 100 100 100 100 100 100 100 100 100 100 86 92 92 98 86 70 69 82 71
100 100 100 100 100 100 100 100 100 100 100 100 100 100 100 100 100 100 100 100 97 86 93 97 98 89 76 100 74 75 75 67
98 90 89 100 100 100 100 100 100 100 100 100 100 100 100 100 100 91 84 72 72 78 84 80 86 84 100 99 78 79 73 79